Home > Weather > Oldham > Past weeks

Flag for United Kingdom Past Weather in Oldham, England, United Kingdom — Yesterday and Last 2 Weeks

Now
66 °F

Passing clouds.


Feels Like: 66 °F
Forecast: 56 / 64 °F
Wind: 8 mph from Southeast

Location: Manchester Airport

Current Time: Aug 27, 2016 at 12:57:06 PM

Latest Report: Aug 27, 2016 at 11:50 AM


Visibility: N/A

Pressure: 30.07 "Hg

Humidity: 64%

Dew Point: 54 °F

Location of OldhamLocation

Past Weather in Oldham — Graph

°F

Oldham Temperature Yesterday

Maximum temperature yesterday: 68 °F (at 1:50 PM)
Minimum temperature yesterday: 52 °F (at 6:20 AM)
Average temperature yesterday: 61 °F

High & Low Weather Summary for the Past Weeks

 TemperatureHumidityPressure
High79 °F (Aug 23, 3:20 PM)100% (Aug 21, 9:50 PM)30.33 "Hg (Aug 21, 9:50 PM)
Low46 °F (Aug 15, 5:50 AM)47% (Aug 18, 5:50 PM)29.45 "Hg (Aug 20, 7:20 AM)
Average63 °F79%30.01 "Hg
* Reported Aug 12 11:20 AM — Aug 27 11:20 AM, Oldham, Weather by CustomWeather, © 2016

Note: Actual official high and low records may vary slightly from our data, if they occured in-between our weather recording intervals... More about our weather records

Advertising

Oldham Weather History for the Previous 24 Hours

Scroll right to see more
 ConditionsComfort  
Time TempWeatherWind HumidityBarometerVisibility
11:20 AM
Sat, Aug 27
66 °FPassing clouds.7 mph64%30.07 "HgN/A
10:50 AM64 °FPassing clouds.7 mph68%30.09 "HgN/A
10:20 AM64 °FPassing clouds.5 mph68%30.09 "HgN/A
9:50 AM63 °FPassing clouds.5 mph73%30.09 "HgN/A
9:20 AM61 °FSunny.2 mph77%30.09 "Hg10 mi
8:50 AM59 °FSunny.3 mph82%30.09 "Hg10 mi
8:20 AM57 °FSunny.2 mph82%30.12 "Hg10 mi
7:50 AM54 °FSunny.2 mph88%30.12 "Hg10 mi
7:20 AM54 °FSunny.3 mph88%30.12 "Hg10 mi
6:50 AM50 °FClear.2 mph94%30.12 "Hg10 mi
6:20 AM50 °FClear.2 mph94%30.12 "Hg10 mi
5:50 AM48 °FClear.2 mph94%30.09 "Hg10 mi
5:20 AM48 °FClear.No wind94%30.09 "Hg10 mi
4:50 AM48 °FClear.3 mph94%30.09 "Hg10 mi
4:20 AM50 °FClear.3 mph94%30.12 "Hg10 mi
3:50 AM50 °FClear.5 mph94%30.12 "Hg10 mi
3:20 AM50 °FClear.3 mph94%30.12 "Hg10 mi
2:50 AM50 °FClear.3 mph94%30.12 "Hg10 mi
2:20 AM50 °FClear.3 mph94%30.12 "Hg10 mi
1:50 AM50 °FClear.3 mph94%30.12 "Hg10 mi
1:20 AM52 °FClear.3 mph94%30.12 "Hg10 mi
12:50 AM52 °FClear.3 mph88%30.12 "Hg10 mi
12:20 AM52 °FClear.5 mph88%30.12 "Hg10 mi
11:50 PM
Fri, Aug 26
54 °FCool.3 mph82%30.12 "HgN/A
11:20 PM54 °FClear.3 mph88%30.12 "Hg10 mi
10:50 PM55 °FClear.5 mph82%30.12 "Hg10 mi
10:20 PM59 °FPassing clouds.5 mph72%30.12 "HgN/A
9:50 PM57 °FClear.5 mph77%30.12 "Hg10 mi
9:20 PM61 °FPassing clouds.7 mph68%30.12 "HgN/A
8:50 PM61 °FSunny.3 mph68%30.12 "Hg10 mi
8:20 PM61 °FSunny.7 mph68%30.09 "Hg10 mi
7:50 PM61 °FSunny.7 mph68%30.09 "Hg10 mi
7:20 PM64 °FPassing clouds.9 mph60%30.07 "HgN/A
6:50 PM66 °FSunny.6 mph56%30.07 "Hg10 mi
6:20 PM66 °FPassing clouds.12 mph56%30.07 "HgN/A
5:50 PM66 °FPassing clouds.15 mph56%30.07 "HgN/A
5:20 PM68 °FPassing clouds.16 mph53%30.07 "HgN/A
4:50 PM68 °FPassing clouds.12 mph56%30.07 "HgN/A
4:20 PM68 °FPassing clouds.13 mph56%30.07 "HgN/A
3:50 PM68 °FPassing clouds.10 mph56%30.07 "HgN/A
3:20 PM68 °FPassing clouds.14 mph56%30.07 "HgN/A
2:50 PM68 °FPassing clouds.12 mph53%30.07 "HgN/A
2:20 PM68 °FScattered clouds.16 mph53%30.07 "HgN/A
1:50 PM68 °FBroken clouds.15 mph56%30.07 "HgN/A
1:20 PM66 °FBroken clouds.13 mph60%30.07 "HgN/A
12:50 PM66 °FPartly sunny.14 mph56%30.07 "HgN/A
12:20 PM64 °FPartly sunny.12 mph64%30.04 "HgN/A
Weather by CustomWeather, © 2016

See weather overviewHow to use our weather pages